Location: Newark
(49.8969°N, 3.3422°E)
Time: 07:24:43
(UTC+00:00)

A-11 Canister half - Pass Details

Date: 26 January 2020
Orbit: 1517 x 1683 km, 47.2° (Epoch: 20 February)

Event Time Altitude Azimuth Distance (km) Brightness Sun altitude
Rises 06:36:15 0° 287° (WNW) 4,665 - -8.5°
Exits shadow 06:39:25 - 276° (W) 3,873 10.5 -8.0°
Reaches altitude 10° 06:40:17 10° 272° (W) 3,683 10.4 -7.9°
Maximum altitude 06:46:24 20° 230° (SW) 2,975 10.3 -7.0°
Drops below altitude 10° 06:52:37 10° 187° (S) 3,718 11.2 -6.1°
Sets 06:56:45 0° 172° (S) 4,723 12.0 -5.4°
